STARLINK-4479 (53415 NORAD) Tracking and Keplerian Element Data

This shows tracking and keplerian element data for the satellite.

Feedback or suggestion? Click here.




ElementValue
Catalog53415
NameSTARLINK-4479
Epoch Orbit1673
Epoch Day324.85055196
Epoch Year2022
RAAN122.8502
Inclination53.2174
Eccentricity0.0001497
Argument of Perigee62.1781
Mean Anonmoly297.9363
Mean Motion15.08849065
Decay Rate1.696E-05
L11 53415U 22097AD 22324.85055196 .00001696 00000+0 12457-3 0 9993
L22 53415 53.2174 122.8502 0001497 62.1781 297.9363 15.08849065 16730



Live tracking and technical data element details for STARLINK-4479 (NORAD 53415). STARLINK-4479 can be tracked NOW for your location showing map with azimuth and elevation plus other details from your city location.







IsCatalogInMostPopularTable: catalog: 53415, numindb: 6
Update: records affected: 1



GetName: 53415 STARLINK-4479

Hit Count: updated at: Thu, 08 Dec 2022 09:49:24 GMT